Weather History for Ankeny, IA

Change the Weather History Date:

Wednesday, November 14, 2012

  Actual Average (KDSM) Record (KDSM)
Temperature  
Mean Temperature 45 °F 40 °F  
Max Temperature 57 °F 49 °F 73 °F (1964)
Min Temperature 33 °F 31 °F -1 °F (1959)
Degree Days  
Heating Degree Days 20 25  
Month to date heating degree days 301  
Since 1 July heating degree days 785  
Cooling Degree Days 0 0  
Month to date cooling degree days 0  
Year to date cooling degree days 1066  
Moisture  
Dew Point 25 °F    
Average Humidity 51    
Maximum Humidity 81    
Minimum Humidity 20    
Precipitation  
Precipitation 0.00 in 0.08 in 0.86 in (1947)
Month to date precipitation 1.14  
Year to date precipitation 33.55  
Snow  
Snow 0.00 in 0.00 in 2.00 in (1906)
Month to date snowfall 0.5  
Since 1 July snowfall 0.9  
Since 1 September snowfall 0.9  
Snow Depth -    
Sea Level Pressure  
Sea Level Pressure 30.29 in    
Wind  
Wind Speed 6 mph (South)    
Max Wind Speed 16 mph    
Max Gust Speed 22 mph    
Visibility 10 miles    
Events      
T = Trace of Precipitation, MM = Missing Value Source: NWS Daily Summary

Daily Weather History Graph

Daily Weather History Graph

Search for Another Location

Airport:

Trip Planner

Search our weather history database for the weather conditions in past years. The results will help you decide how hot, cold, wet, or windy it might be!

Date:

Astronomy

Nov. 14, 2012 Rise Set
Actual Time 7:02 AM CST 4:54 PM CST
Civil Twilight 6:32 AM CST 5:24 PM CST
Nautical Twilight 5:59 AM CST 5:57 PM CST
Astronomical Twilight 5:26 AM CST 6:30 PM CST
Moon 7:53 AM CST (11/14) 5:42 PM CST (11/14)
Length of Visible Light 10h 51m
Length of Day
9h 51m
New Moon, 1% of the Moon is Illuminated
Nov 14
New Moon
Nov 20
First Quarter
Nov 28
Full
Dec 6
Last Quarter
Dec 13
New

Hourly Weather History & Observations

Time (CST) Temp. Windchill Dew Point Humidity Pressure Visibility Wind Dir Wind Speed Gust Speed Precip Events Conditions
12:15 AM 41.0 °F 36.4 °F 28.4 °F 61% 30.33 in 10.0 mi South 6.9 mph - N/A   Clear
12:35 AM 41.0 °F 38.0 °F 30.2 °F 65% 30.33 in 10.0 mi South 4.6 mph - N/A   Scattered Clouds
12:55 AM 41.0 °F - 30.2 °F 65% 30.33 in 10.0 mi Calm Calm - N/A   Scattered Clouds
1:15 AM 39.2 °F 35.0 °F 30.2 °F 70% 30.33 in 10.0 mi SSE 5.8 mph - N/A   Clear
1:35 AM 39.2 °F 35.0 °F 30.2 °F 70% 30.33 in 10.0 mi SSE 5.8 mph - N/A   Clear
1:55 AM 39.2 °F 35.9 °F 30.2 °F 70% 30.34 in 10.0 mi South 4.6 mph - N/A   Clear
2:15 AM 39.2 °F 37.0 °F 30.2 °F 70% 30.34 in 10.0 mi South 3.5 mph - N/A   Clear
2:35 AM 39.2 °F 35.9 °F 30.2 °F 70% 30.33 in 10.0 mi South 4.6 mph - N/A   Clear
2:55 AM 39.2 °F 35.9 °F 30.2 °F 70% 30.34 in 10.0 mi South 4.6 mph - N/A   Clear
3:15 AM 37.4 °F 34.9 °F 30.2 °F 75% 30.33 in 10.0 mi South 3.5 mph - N/A   Clear
3:35 AM 37.4 °F 34.9 °F 30.2 °F 75% 30.33 in 10.0 mi South 3.5 mph - N/A   Clear
3:55 AM 37.4 °F 34.9 °F 30.2 °F 75% 30.33 in 10.0 mi South 3.5 mph - N/A   Clear
4:15 AM 37.4 °F 33.8 °F 30.2 °F 75% 30.32 in 10.0 mi South 4.6 mph - N/A   Clear
4:35 AM 37.4 °F 34.9 °F 30.2 °F 75% 30.33 in 10.0 mi South 3.5 mph - N/A   Clear
4:55 AM 37.4 °F - 30.2 °F 75% 30.33 in 10.0 mi Calm Calm - N/A   Clear
5:15 AM 37.4 °F - 30.2 °F 75% 30.33 in 10.0 mi Calm Calm - N/A   Clear
5:35 AM 37.4 °F 34.9 °F 30.2 °F 75% 30.34 in 10.0 mi SE 3.5 mph - N/A   Clear
5:55 AM 35.6 °F 31.7 °F 28.4 °F 75% 30.34 in 10.0 mi SSE 4.6 mph - N/A   Clear
6:15 AM 35.6 °F 32.8 °F 28.4 °F 75% 30.33 in 10.0 mi SSE 3.5 mph - N/A   Clear
6:35 AM 35.6 °F 32.8 °F 28.4 °F 75% 30.33 in 10.0 mi SSE 3.5 mph - N/A   Clear
6:55 AM 35.6 °F - 28.4 °F 75% 30.33 in 10.0 mi Calm Calm - N/A   Clear
7:15 AM 33.8 °F 30.8 °F 28.4 °F 81% 30.33 in 10.0 mi SSE 3.5 mph - N/A   Clear
7:35 AM 33.8 °F - 28.4 °F 81% 30.34 in 10.0 mi Calm Calm - N/A   Clear
7:55 AM 35.6 °F - 28.4 °F 75% 30.34 in 10.0 mi Calm Calm - N/A   Clear
8:15 AM 39.2 °F - 30.2 °F 70% 30.34 in 10.0 mi Calm Calm - N/A   Clear
8:35 AM 42.8 °F 38.0 °F 28.4 °F 57% 30.34 in 10.0 mi SSW 8.1 mph - N/A   Clear
8:55 AM 44.6 °F 40.2 °F 28.4 °F 53% 30.34 in 10.0 mi SSW 8.1 mph - N/A   Clear
9:15 AM 44.6 °F 40.7 °F 28.4 °F 53% 30.34 in 10.0 mi SSW 6.9 mph - N/A   Clear
9:35 AM 46.4 °F 42.9 °F 28.4 °F 50% 30.34 in 10.0 mi South 6.9 mph - N/A   Clear
9:55 AM 48.2 °F - 26.6 °F 43% 30.34 in 10.0 mi South 5.8 mph - N/A   Clear
10:15 AM 48.2 °F - 26.6 °F 43% 30.34 in 10.0 mi South 8.1 mph - N/A   Clear
10:35 AM 51.8 °F - 26.6 °F 38% 30.33 in 10.0 mi SSW 9.2 mph - N/A   Clear
10:55 AM 51.8 °F - 24.8 °F 35% 30.33 in 10.0 mi SSW 8.1 mph - N/A   Clear
11:15 AM 53.6 °F - 24.8 °F 33% 30.32 in 10.0 mi South 10.4 mph - N/A   Clear
11:35 AM 53.6 °F - 24.8 °F 33% 30.31 in 10.0 mi SSW 8.1 mph - N/A   Clear
11:55 AM 55.4 °F - 19.4 °F 25% 30.30 in 10.0 mi SW 13.8 mph 17.3 mph N/A   Clear
12:15 PM 55.4 °F - 17.6 °F 23% 30.29 in 10.0 mi SSW 12.7 mph - N/A   Clear
12:35 PM 55.4 °F - 17.6 °F 23% 30.28 in 10.0 mi SW 15.0 mph 20.7 mph N/A   Clear
12:55 PM 57.2 °F - 17.6 °F 21% 30.28 in 10.0 mi SSW 11.5 mph - N/A   Clear
1:15 PM 57.2 °F - 17.6 °F 21% 30.27 in 10.0 mi SSW 13.8 mph - N/A   Clear
1:35 PM 57.2 °F - 15.8 °F 20% 30.26 in 10.0 mi SW 16.1 mph 20.7 mph N/A   Clear
1:55 PM 57.2 °F - 15.8 °F 20% 30.26 in 10.0 mi SSW 15.0 mph 19.6 mph N/A   Clear
2:15 PM 55.4 °F - 15.8 °F 21% 30.25 in 10.0 mi SSW 13.8 mph 19.6 mph N/A   Clear
2:35 PM 55.4 °F - 15.8 °F 21% 30.25 in 10.0 mi SSW 11.5 mph 21.9 mph N/A   Clear
2:55 PM 55.4 °F - 15.8 °F 21% 30.25 in 10.0 mi SSW 13.8 mph 20.7 mph N/A   Clear
3:15 PM 55.4 °F - 15.8 °F 21% 30.25 in 10.0 mi South 13.8 mph 20.7 mph N/A   Clear
3:35 PM 55.4 °F - 15.8 °F 21% 30.25 in 10.0 mi SSW 10.4 mph - N/A   Clear
3:55 PM 53.6 °F - 17.6 °F 24% 30.25 in 10.0 mi SSW 8.1 mph - N/A   Clear
4:15 PM 53.6 °F - 15.8 °F 22% 30.25 in 10.0 mi SSW 9.2 mph - N/A   Clear
4:35 PM 51.8 °F - 19.4 °F 28% 30.24 in 10.0 mi SSW 8.1 mph - N/A   Clear
4:55 PM 51.8 °F - 17.6 °F 26% 30.24 in 10.0 mi South 5.8 mph - N/A   Clear
5:15 PM 48.2 °F - 19.4 °F 32% 30.24 in 10.0 mi South 5.8 mph - N/A   Clear
5:35 PM 46.4 °F 44.3 °F 19.4 °F 34% 30.24 in 10.0 mi South 4.6 mph - N/A   Clear
5:55 PM 42.8 °F 40.1 °F 24.8 °F 49% 30.24 in 10.0 mi South 4.6 mph - N/A   Clear
6:15 PM 42.8 °F 39.3 °F 26.6 °F 53% 30.24 in 10.0 mi SE 5.8 mph - N/A   Clear
6:35 PM 44.6 °F 41.4 °F 23.0 °F 43% 30.23 in 10.0 mi SSE 5.8 mph - N/A   Clear
6:55 PM 44.6 °F 43.1 °F 21.2 °F 39% 30.24 in 10.0 mi South 3.5 mph - N/A   Clear
7:15 PM 42.8 °F 40.1 °F 24.8 °F 49% 30.24 in 10.0 mi South 4.6 mph - N/A   Clear
7:35 PM 41.0 °F 38.0 °F 24.8 °F 53% 30.25 in 10.0 mi SSE 4.6 mph - N/A   Clear
7:55 PM 41.0 °F 37.1 °F 24.8 °F 53% 30.24 in 10.0 mi SSE 5.8 mph - N/A   Clear
8:35 PM 41.0 °F 38.0 °F 24.8 °F 53% 30.24 in 10.0 mi South 4.6 mph - N/A   Clear
8:55 PM 39.2 °F 35.0 °F 24.8 °F 56% 30.24 in 10.0 mi South 5.8 mph - N/A   Clear
9:15 PM 41.0 °F 36.4 °F 26.6 °F 57% 30.25 in 10.0 mi South 6.9 mph - N/A   Clear
9:35 PM 41.0 °F 36.4 °F 26.6 °F 57% 30.24 in 10.0 mi South 6.9 mph - N/A   Clear
9:55 PM 41.0 °F 36.4 °F 26.6 °F 57% 30.24 in 10.0 mi South 6.9 mph - N/A   Clear
10:15 PM 42.8 °F 38.6 °F 24.8 °F 49% 30.24 in 10.0 mi South 6.9 mph - N/A   Clear
10:35 PM 42.8 °F 38.0 °F 24.8 °F 49% 30.24 in 10.0 mi South 8.1 mph - N/A   Clear
10:55 PM 44.6 °F 40.2 °F 24.8 °F 46% 30.24 in 10.0 mi South 8.1 mph - N/A   Clear
11:15 PM 42.8 °F 38.0 °F 26.6 °F 53% 30.24 in 10.0 mi South 8.1 mph - N/A   Clear
11:35 PM 42.8 °F 37.5 °F 26.6 °F 53% 30.24 in 10.0 mi South 9.2 mph - N/A   Clear
11:55 PM 42.8 °F 38.6 °F 24.8 °F 49% 30.24 in 10.0 mi South 6.9 mph - N/A   Clear